Location: Shepherdstown, WV
(39.4326°N, 77.8042°W)
Time: 05:52:17
(UTC-04:00)

SR - Pass Details

Date: 06 August 2021
Orbit: 581 x 874 km, 66.7° (Epoch: 24 September)

Event Time Altitude Azimuth Distance (km) Brightness Sun altitude
Rises 14:19:19 0° 337° (NNW) 3,069 ? 63.3°
Reaches altitude 10° 14:21:52 10° 345° (NNW) 2,100 ? 63.1°
Maximum altitude 14:26:18 40° 55° (NE) 942 ? 62.5°
Drops below altitude 10° 14:30:25 10° 125° (SE) 1,951 ? 62.0°
Sets 14:32:42 0° 133° (SE) 2,824 ? 61.7°
